Monistrol de Calders





Hora UTC 22:15
Temperatura 6.2 ºC
Humitat 88.0 %
Pressió 1028.6 hPa
Pluja 0.0 mm
Velocitat vent 0.0 km/h
Direcció vent SSE

Dades diàries 2020-10-29



Hora UTC (hivern +1h; estiu +2h)
Temperatura (ºC) Humitat (%) Pressió (hPa) Velocitat vent (km/h) Precipitació (mm)
Hora UTC Aire Humitat Pressió Vel. Dir. Vel. Max Dir. Intent. màx 5 min.
00:05 5.8 88.0 1026.1 0.0 SSE 0.0 0.0
00:10 5.7 88.0 1026.2 0.0 SSE 3.2 0.0
00:15 5.7 88.0 1026.2 0.0 SSE 3.2 0.0
00:20 5.8 88.0 1026.3 0.0 SSE 1.6 0.0
00:25 5.8 88.0 1026.1 0.0 SSE 3.2 0.0
00:30 5.6 88.0 1026.0 0.0 SSE 3.2 0.0
00:35 5.6 88.0 1026.0 0.0 SSE 3.2 0.0
00:40 5.6 88.0 1026.1 0.0 SSE 3.2 0.0
00:45 5.6 88.0 1026.2 0.0 SSE 0.0 0.0
00:50 5.7 88.0 1026.3 0.0 SSE 0.0 0.0
00:55 5.7 88.0 1026.3 0.0 SSE 0.0 0.0
01:00 5.6 88.0 1026.3 0.0 SSE 0.0 0.0
01:05 5.4 88.0 1026.4 0.0 SSE 0.0 0.0
01:10 5.4 88.0 1026.4 0.0 SSE 0.0 0.0
01:15 5.5 88.0 1026.5 0.0 SSE 0.0 0.0
01:20 5.5 88.0 1026.5 0.0 SSE 0.0 0.0
01:25 5.4 88.0 1026.7 0.0 SSE 0.0 0.0
01:30 5.4 88.0 1026.7 0.0 SSE 0.0 0.0
01:35 5.3 88.0 1026.6 0.0 SSE 0.0 0.0
01:40 5.2 88.0 1026.7 0.0 SSE 0.0 0.0
01:45 5.3 88.0 1026.7 0.0 SSE 0.0 0.0
01:50 5.1 88.0 1026.6 0.0 SSE 1.6 0.0
01:55 5.1 88.0 1026.6 0.0 SSE 1.6 0.0
02:00 5.2 88.0 1026.6 0.0 SSE 1.6 0.0
02:05 5.2 88.0 1026.5 0.0 SSE 3.2 0.0
02:10 5.2 88.0 1026.4 0.0 SSE 3.2 0.0
02:15 5.2 88.0 1026.3 0.0 SSE 0.0 0.0
02:20 5.2 89.0 1026.3 0.0 SSE 3.2 0.0
02:25 5.3 89.0 1026.2 0.0 SSE 3.2 0.0
02:30 5.3 89.0 1026.1 0.0 SSE 0.0 0.0
02:35 5.3 88.0 1026.1 0.0 SSE 0.0 0.0
02:40 5.2 88.0 1026.3 0.0 SSE 0.0 0.0
02:45 5.2 89.0 1026.3 0.0 SSE 0.0 0.0
02:50 5.2 89.0 1026.3 0.0 SSE 0.0 0.0
02:55 5.2 89.0 1026.4 0.0 SSE 0.0 0.0
03:00 5.3 89.0 1026.4 0.0 SSE 0.0 0.0
03:05 5.2 89.0 1026.5 0.0 SSE 0.0 0.0
03:10 5.1 89.0 1026.4 0.0 SSE 0.0 0.0
03:15 5.1 89.0 1026.3 0.0 SSE 0.0 0.0
03:20 5.1 89.0 1026.4 0.0 SSE 1.6 0.0
03:25 5.3 89.0 1026.4 0.0 SSE 1.6 0.0
03:30 5.4 89.0 1026.5 0.0 SSE 0.0 0.0
03:35 5.5 89.0 1026.4 0.0 SSE 0.0 0.0
03:40 5.4 89.0 1026.3 0.0 SSE 0.0 0.0
03:45 5.5 89.0 1026.4 0.0 SSE 1.6 0.0
03:50 5.6 89.0 1026.6 0.0 SSE 1.6 0.0
03:55 5.8 89.0 1026.8 0.0 SSE 0.0 0.0
04:00 5.9 89.0 1026.8 0.0 SSE 0.0 0.0
04:05 6.0 89.0 1026.9 0.0 SSE 0.0 0.0
04:10 6.0 89.0 1026.9 0.0 SSE 0.0 0.0
04:10 6.1 89.0 1027.0 0.0 SSE 0.0 0.0
04:15 6.1 89.0 1027.0 0.0 SSE 0.0 0.0
04:20 6.2 89.0 1026.9 0.0 SSE 0.0 0.0
04:25 6.4 89.0 1027.0 0.0 SSE 0.0 0.0
04:30 6.5 89.0 1027.0 0.0 SSE 0.0 0.0
04:35 6.6 89.0 1027.0 0.0 SSE 0.0 0.0
04:40 6.7 89.0 1027.1 0.0 SSE 0.0 0.0
04:45 6.7 89.0 1027.1 0.0 SSE 0.0 0.0
04:50 6.8 89.0 1027.2 0.0 SSE 0.0 0.0
04:55 6.8 89.0 1027.1 0.0 SSE 0.0 0.0
05:00 6.8 89.0 1027.2 0.0 SSE 0.0 0.0
05:05 6.9 89.0 1027.3 0.0 SSE 0.0 0.0
05:10 6.9 89.0 1027.3 0.0 SSE 0.0 0.0
05:15 6.9 89.0 1027.3 0.0 SSE 0.0 0.0
05:20 6.9 89.0 1027.3 0.0 SSE 0.0 0.0
05:25 6.9 89.0 1027.4 0.0 SSE 0.0 0.0
05:30 6.9 89.0 1027.5 0.0 SSE 0.0 0.0
05:35 7.0 89.0 1027.6 0.0 SSE 0.0 0.0
05:40 6.9 89.0 1027.4 0.0 SSE 0.0 0.0
05:45 6.9 89.0 1027.5 0.0 SSE 0.0 0.0
05:50 6.8 89.0 1027.5 0.0 SSE 0.0 0.0
05:55 6.9 89.0 1027.4 0.0 SSE 3.2 0.0
06:00 6.9 89.0 1027.3 0.0 SSE 0.0 0.0
06:05 6.9 89.0 1027.2 0.0 SSE 0.0 0.0
06:10 6.8 89.0 1027.2 0.0 SSE 0.0 0.0
06:15 6.8 89.0 1027.4 0.0 SSE 0.0 0.0
06:20 6.7 89.0 1027.4 0.0 SSE 0.0 0.0
06:25 6.7 89.0 1027.4 0.0 SSE 0.0 0.0
06:30 6.7 89.0 1027.5 0.0 SSE 0.0 0.0
06:35 6.7 89.0 1027.5 0.0 SSE 0.0 0.0
06:40 6.6 89.0 1027.7 0.0 SSE 0.0 0.0
06:45 6.5 89.0 1027.8 0.0 SSE 0.0 0.0
06:50 6.5 89.0 1027.8 0.0 SSE 1.6 0.0
06:55 6.5 89.0 1027.9 0.0 SSE 1.6 0.0
07:00 6.5 89.0 1028.1 0.0 SSE 0.0 0.0
07:05 6.6 89.0 1028.2 0.0 SSE 0.0 0.0
07:10 6.6 89.0 1028.3 0.0 SSE 0.0 0.0
07:15 6.7 89.0 1028.4 0.0 SSE 0.0 0.0
07:20 6.9 89.0 1028.4 0.0 SSE 0.0 0.0
07:25 6.9 89.0 1028.4 0.0 SSE 0.0 0.0
07:30 7.1 89.0 1028.4 0.0 SSE 0.0 0.0
07:35 7.2 89.0 1028.4 0.0 SSE 0.0 0.0
07:40 7.4 89.0 1028.4 0.0 SSE 0.0 0.0
07:45 7.6 89.0 1028.3 0.0 SSE 1.6 0.0
07:50 7.8 89.0 1028.3 1.6 SSE 1.6 0.0
07:55 8.1 89.0 1028.4 0.0 SSE 3.2 0.0
08:00 8.3 89.0 1028.4 0.0 SSE 1.6 0.0
08:05 8.6 89.0 1028.3 0.0 SSE 1.6 0.0
08:10 8.8 89.0 1028.3 0.0 SSE 0.0 0.0
08:15 9.1 89.0 1028.3 0.0 SSE 0.0 0.0
08:20 9.4 89.0 1028.3 0.0 SSE 0.0 0.0
08:25 9.6 89.0 1028.2 0.0 SSE 0.0 0.0
08:30 9.8 89.0 1028.3 0.0 SSE 0.0 0.0
08:40 9.9 89.0 1028.2 0.0 SSE 0.0 0.0
08:45 10.3 89.0 1028.2 0.0 SSE 0.0 0.0
08:50 10.6 88.0 1028.2 0.0 SSE 0.0 0.0
08:55 10.9 88.0 1028.3 0.0 SSE 0.0 0.0
09:00 11.3 88.0 1028.4 0.0 SSE 1.6 0.0
09:05 11.8 88.0 1028.6 0.0 SE 1.6 0.0
09:10 12.4 87.0 1028.8 0.0 SE 1.6 0.0
09:15 12.9 86.0 1028.9 0.0 SSE 1.6 0.0
09:20 13.2 85.0 1028.9 0.0 SSE 3.2 0.0
09:25 13.6 84.0 1028.9 0.0 SSE 1.6 0.0
09:30 13.8 83.0 1028.8 1.6 SSE 1.6 0.0
09:35 14.1 83.0 1028.8 0.0 SSE 1.6 0.0
09:40 14.3 81.0 1028.7 0.0 SE 1.6 0.0
09:45 14.3 81.0 1028.8 3.2 SE 3.2 0.0
09:50 14.3 81.0 1028.8 3.2 SE 3.2 0.0
09:55 1028.7 0.0
10:00 1028.7 0.0
10:05 1028.6 0.0
10:10 1028.6 0.0
10:15 1028.6 0.0
10:20 1028.6 0.0
10:25 1028.6 0.0
10:25 1028.6 0.0
10:30 1028.6 0.0
10:35 1028.5 0.0
10:40 1028.5 0.0
10:45 1028.4 0.0
10:50 1028.5 0.0
10:55 1028.4 0.0
11:00 17.6 70.0 1028.4 1.6 WNW 6.4 0.0
11:05 17.8 68.0 1028.4 1.6 WNW 8.0 0.0
11:10 18.0 66.0 1028.2 0.0 WNW 8.0 0.0
11:15 18.2 66.0 1028.1 4.8 WNW 4.8 0.0
11:20 18.3 65.0 1028.1 1.6 WNW 6.4 0.0
11:25 18.3 64.0 1028.0 1.6 WNW 6.4 0.0
11:30 18.3 64.0 1027.9 1.6 WNW 4.8 0.0
11:35 18.2 65.0 1027.8 1.6 WNW 6.4 0.0
11:40 18.2 64.0 1027.8 1.6 W 6.4 0.0
11:45 18.1 62.0 1027.7 6.4 SW 9.7 0.0
11:50 17.7 63.0 1027.5 4.8 WSW 9.7 0.0
11:55 17.6 64.0 1027.4 3.2 SW 11.3 0.0
12:00 17.6 64.0 1027.4 1.6 SE 11.3 0.0
12:05 17.8 63.0 1027.4 1.6 W 8.0 0.0
12:10 18.0 63.0 1027.4 3.2 W 12.9 0.0
12:15 18.0 62.0 1027.3 1.6 WSW 12.9 0.0
12:20 17.9 62.0 1027.3 4.8 SW 11.3 0.0
12:25 18.0 64.0 1027.2 1.6 NW 11.3 0.0
12:30 18.3 62.0 1027.2 4.8 WNW 8.0 0.0
12:35 18.6 62.0 1027.1 0.0 WNW 8.0 0.0
12:40 18.8 61.0 1027.0 1.6 WSW 6.4 0.0
12:45 19.1 61.0 1026.9 1.6 WNW 6.4 0.0
12:50 19.3 60.0 1026.8 1.6 WNW 6.4 0.0
13:00 19.4 59.0 1026.8 1.6 W 6.4 0.0
13:05 19.4 59.0 1026.7 1.6 WNW 4.8 0.0
13:10 19.5 59.0 1026.8 0.0 WNW 4.8 0.0
13:15 19.6 59.0 1026.7 1.6 WNW 4.8 0.0
13:20 19.7 58.0 1026.6 0.0 WNW 3.2 0.0
13:25 19.8 57.0 1026.7 1.6 W 8.0 0.0
13:30 19.8 58.0 1026.5 3.2 W 8.0 0.0
13:35 19.9 56.0 1026.6 1.6 S 4.8 0.0
13:40 19.9 56.0 1026.6 0.0 W 4.8 0.0
13:45 20.0 56.0 1026.4 0.0 W 4.8 0.0
13:50 20.2 55.0 1026.3 6.4 SW 9.7 0.0
13:55 20.1 53.0 1026.3 6.4 SSW 12.9 0.0
14:00 20.0 54.0 1026.3 8.0 SW 16.1 0.0
14:05 19.8 55.0 1026.2 3.2 S 16.1 0.0
14:10 19.6 57.0 1026.2 0.0 SW 14.5 0.0
14:15 19.8 56.0 1026.3 1.6 SW 8.0 0.0
14:20 19.9 55.0 1026.3 4.8 ENE 9.7 0.0
14:25 19.9 55.0 1026.3 1.6 ENE 8.0 0.0
14:30 20.1 55.0 1026.3 1.6 WNW 4.8 0.0
14:35 20.1 54.0 1026.2 3.2 WNW 4.8 0.0
14:40 20.0 54.0 1026.3 0.0 NE 4.8 0.0
14:45 19.8 54.0 1026.4 0.0 ENE 8.0 0.0
14:50 19.7 55.0 1026.4 4.8 WSW 8.0 0.0
14:55 19.7 53.0 1026.4 1.6 SSE 6.4 0.0
15:00 19.7 54.0 1026.4 0.0 SSE 4.8 0.0
15:05 19.6 56.0 1026.5 0.0 WSW 4.8 0.0
15:10 19.4 53.0 1026.5 4.8 WSW 6.4 0.0
15:15 19.3 53.0 1026.5 0.0 WSW 12.9 0.0
15:20 19.3 53.0 1026.4 4.8 WSW 12.9 0.0
15:25 19.3 54.0 1026.5 0.0 WNW 12.9 0.0
15:30 19.2 54.0 1026.6 0.0 SW 8.0 0.0
15:35 19.1 55.0 1026.5 0.0 W 8.0 0.0
15:40 18.9 55.0 1026.6 0.0 W 4.8 0.0
15:45 18.8 55.0 1026.5 3.2 W 11.3 0.0
15:50 18.8 55.0 1026.6 0.0 SW 11.3 0.0
15:55 18.7 56.0 1026.6 0.0 WSW 4.8 0.0
16:00 18.4 58.0 1026.6 0.0 WSW 3.2 0.0
16:05 18.1 59.0 1026.7 0.0 WSW 0.0 0.0
16:10 17.9 60.0 1026.7 0.0 WSW 0.0 0.0
16:15 17.6 62.0 1026.6 0.0 WSW 0.0 0.0
16:20 17.2 63.0 1026.6 0.0 WSW 0.0 0.0
16:25 16.7 65.0 1026.7 0.0 WSW 0.0 0.0
16:30 16.2 67.0 1026.7 0.0 SW 0.0 0.0
16:35 15.7 69.0 1026.7 3.2 SW 4.8 0.0
16:40 15.2 70.0 1026.7 1.6 SW 4.8 0.0
16:45 14.7 72.0 1026.8 1.6 SSE 4.8 0.0
16:50 14.4 73.0 1026.8 0.0 SSE 6.4 0.0
16:55 14.1 74.0 1026.9 3.2 SSE 4.8 0.0
17:00 13.8 74.0 1026.8 1.6 SSE 4.8 0.0
17:05 13.6 75.0 1026.8 0.0 SSE 4.8 0.0
17:10 13.3 76.0 1027.0 1.6 SSE 4.8 0.0
17:15 13.1 77.0 1027.1 3.2 SSE 4.8 0.0
17:20 13.0 77.0 1027.1 6.4 SSE 6.4 0.0
17:25 12.9 77.0 1027.1 4.8 SSE 4.8 0.0
17:30 12.8 77.0 1027.2 3.2 SSE 6.4 0.0
17:35 12.7 77.0 1027.3 1.6 SE 6.4 0.0
17:40 12.5 77.0 1027.3 3.2 SSE 6.4 0.0
17:45 12.3 78.0 1027.4 0.0 SSE 8.0 0.0
17:50 12.1 78.0 1027.5 1.6 SSE 3.2 0.0
17:55 11.8 78.0 1027.5 1.6 SSE 4.8 0.0
18:00 11.7 79.0 1027.6 3.2 SSE 4.8 0.0
18:05 11.4 80.0 1027.6 3.2 SSE 8.0 0.0
18:05 11.3 80.0 1027.7 4.8 SSE 8.0 0.0
18:15 11.1 80.0 1027.7 1.6 SSE 8.0 0.0
18:20 10.9 80.0 1027.8 6.4 SSE 8.0 0.0
18:25 10.7 81.0 1027.8 3.2 SSE 8.0 0.0
18:30 10.6 81.0 1027.8 4.8 SE 6.4 0.0
18:35 10.4 81.0 1027.9 0.0 SSE 6.4 0.0
18:40 10.2 81.0 1027.9 3.2 SSE 4.8 0.0
18:45 10.1 82.0 1027.9 1.6 SSE 4.8 0.0
18:50 9.9 82.0 1028.0 4.8 SSE 4.8 0.0
18:55 9.7 82.0 1027.9 0.0 SSE 4.8 0.0
19:00 9.6 83.0 1028.0 3.2 SSE 4.8 0.0
19:05 9.4 83.0 1027.9 3.2 SSE 8.0 0.0
19:10 9.2 83.0 1027.9 1.6 SSE 8.0 0.0
19:15 9.1 83.0 1027.9 3.2 SSE 8.0 0.0
19:20 8.9 84.0 1027.9 1.6 SSE 8.0 0.0
19:25 8.8 84.0 1027.9 1.6 SSE 8.0 0.0
19:30 8.7 84.0 1027.8 0.0 SSE 8.0 0.0
19:35 8.6 84.0 1027.8 6.4 SSE 6.4 0.0
19:40 8.4 84.0 1027.8 3.2 SSE 4.8 0.0
19:45 8.3 85.0 1027.9 3.2 SSE 6.4 0.0
19:50 8.3 85.0 1028.0 3.2 SSE 6.4 0.0
19:55 8.2 85.0 1028.0 0.0 SSE 4.8 0.0
20:00 8.2 85.0 1028.0 1.6 SSE 4.8 0.0
20:05 8.0 85.0 1028.1 1.6 SSE 4.8 0.0
20:10 7.8 85.0 1028.1 3.2 SSE 8.0 0.0
20:15 7.7 86.0 1028.1 0.0 SSE 8.0 0.0
20:20 7.7 86.0 1028.1 4.8 SSE 8.0 0.0
20:25 7.6 86.0 1028.2 0.0 SSE 8.0 0.0
20:30 7.5 86.0 1028.2 0.0 SSE 4.8 0.0
20:35 7.4 86.0 1028.3 3.2 SSE 4.8 0.0
20:40 7.3 86.0 1028.3 3.2 SSE 8.0 0.0
20:45 7.3 86.0 1028.3 1.6 SSE 8.0 0.0
20:45 7.2 86.0 1028.3 3.2 SSE 8.0 0.0
20:55 7.1 86.0 1028.4 0.0 SSE 4.8 0.0
20:55 7.1 87.0 1028.4 1.6 SSE 3.2 0.0
21:00 6.9 86.0 1028.5 1.6 SSE 4.8 0.0
21:05 6.9 87.0 1028.5 0.0 SSE 4.8 0.0
21:15 6.8 87.0 1028.5 1.6 SSE 3.2 0.0
21:15 6.8 87.0 1028.5 1.6 SSE 3.2 0.0
21:25 6.8 87.0 1028.5 3.2 SSE 4.8 0.0
21:25 6.8 87.0 1028.4 0.0 SSE 4.8 0.0
21:30 6.8 87.0 1028.5 0.0 SSE 3.2 0.0
21:35 6.6 87.0 1028.6 4.8 SSE 4.8 0.0
21:40 6.6 87.0 1028.6 0.0 SSE 4.8 0.0
21:45 6.4 87.0 1028.6 0.0 SSE 4.8 0.0
21:50 6.4 87.0 1028.6 1.6 SSE 4.8 0.0
21:55 6.3 87.0 1028.6 0.0 SSE 3.2 0.0
22:00 6.3 87.0 1028.6 3.2 SSE 4.8 0.0
22:05 6.3 87.0 1028.6 1.6 SSE 4.8 0.0
22:10 6.2 88.0 1028.6 3.2 SSE 4.8 0.0
22:15 6.2 88.0 1028.6 0.0 SSE 4.8 0.0
Màxima 20.2 89.0 1028.9 8.0 SW 16.1 0.0
Mínima 5.1 53.0 1026.0
Total 0.0